Regional Weather Roundup
Issued by NWS

Home | Current Version | Previous Version | Text Only | Print | Product List | Glossary Off
Versions: 1 2 3 4 5 6 7 8 9 10 11 12 13 14 15 16 17 18 19 20 21 22 23 24 25 26 27 28 29 30 31 32 33 34 35 36 37 38 39 40 41 42 43 44 45 46 47 48 49 50

000
ASUS43 KLSX 142107
RWRMO

WEATHER SUMMARY FOR MISSOURI
NATIONAL WEATHER SERVICE SPRINGFIELD MO
300 PM CST THU DEC 14 2017

NOTE: "FAIR" INDICATES FEW OR NO CLOUDS BELOW 12,000 FEET WITH NO
       SIGNIFICANT WEATHER AND/OR OBSTRUCTIONS TO VISIBILITY.
       CURRENT SKY AND/OR WEATHER CONDITIONS ARE NOT AVAILABLE FOR
       CHILLICOTHE AND FARMINGTON.

MOZ001>031-035>038-043-044-053-054-142200-
...NORTHERN AND WESTERN MISSOURI...

CITY           SKY/WX    TMP DP  RH WIND       PRES   REMARKS
KANSAS CTY INT CLOUDY    41  24  51 VRB5      30.06F
KANSAS C DTWN  CLOUDY    42  23  46 NW5       30.08R
LEE`S SUMMIT   CLOUDY    40  25  55 VRB3      30.08S
ST JOSEPH      CLOUDY    42  25  50 NW9       30.07S
CHILLICOTHE      N/A     36  22  56 N3        30.09S
KIRKSVILLE     CLOUDY    31  24  75 NW5       30.07R WCI  26

$$
MOZ066>068-077>081-088>096-101>105-142200-
...SOUTHWEST MISSOURI...

CITY           SKY/WX    TMP DP  RH WIND       PRES   REMARKS
SPRINGFIELD    CLOUDY    38  24  57 N8        30.07S
JOPLIN         CLOUDY    41  27  57 NW7       30.10S
BRANSON        CLOUDY    37  21  52 N12G17    30.08R WCI  30

$$
MOZ032>034-039>042-045>050-055>058-069>072-142200-
...CENTRAL MISSOURI...

CITY           SKY/WX    TMP DP  RH WIND       PRES   REMARKS
COLUMBIA       CLOUDY    33  21  61 N6        30.08R WCI  28
JEFFERSON CITY CLOUDY    34  22  61 NW6       30.10R WCI  29
ROLLA          CLOUDY    35  22  58 NW8       30.06R WCI  29
SEDALIA        CLOUDY    36  25  64 N10       30.10S WCI  28
WHITEMAN AFB   CLOUDY    36  22  57 N5        30.04S
WARRENSBURG    CLOUDY    37  25  60 CALM      30.09R
OSAGE BEACH    CLOUDY    37  23  56 VRB6      30.09S

$$
MOZ051-052-059>065-142200-
...EAST CENTRAL MISSOURI...

CITY           SKY/WX    TMP DP  RH WIND       PRES   REMARKS
ST LOUIS INTL  CLOUDY    32  20  61 NW7       30.08R WCI  26
SPIRIT OF STL  CLOUDY    33  20  58 NW5       30.09R WCI  29
ST CHARLES     CLOUDY    32  17  54 W7        30.09R WCI  26

$$
MOZ072>076-082>087-097>100-106>115-142200-
...SOUTH CENTRAL AND SOUTHEAST MISSOURI...

CITY           SKY/WX    TMP DP  RH WIND       PRES   REMARKS
CAPE GIRARDEAU CLOUDY    35  21  56 N8        30.08R WCI  29
FARMINGTON     CLOUDY    32  22  66 N3        30.07R
POPLAR BLUFF   CLOUDY    40  25  55 N7        30.07R
WEST PLAINS    CLOUDY    39  21  48 NW10      30.05S

$$



USA.gov is the U.S. government's official web portal to all federal, state and local government web resources and services.